Location: Hopewell Observatory
(38.8698°N, 77.6988°W)
Time: 04:41:42
(UTC-04:00)

Amateur Radio Satellites - All Passes

Search period start: 01 October 2016 04:11
Search period end: 02 October 2016 04:11
Location: Hopewell Observatory, 38.8698°N, 77.6988°W

Satellite Date Start Highest point End Downlink Frequencies (MHz)
Time Altitude Azimuth
PCSat 01 Oct 04:11:50 04:17:14 79° 116° (ESE) 04:22:41 145.827
AIST 2 01 Oct 04:15:04 04:18:40 29° 309° (NW) 04:22:19 435.215
ITAMSAT 1 01 Oct 04:18:00 04:23:16 84° 103° (ESE) 04:28:30 435.822/435.867
AIST 1 01 Oct 04:23:52 04:26:34 16° 87° (E) 04:29:16
Gurwin Techsat 1B 01 Oct 04:44:43 04:48:03 17° 297° (WNW) 04:51:21 435.225
YUBILEINY 01 Oct 04:49:27 04:56:56 31° 290° (WNW) 05:04:25 435.215
CUBESAT XI-V 01 Oct 04:49:47 04:53:53 30° 70° (ENE) 04:57:59 437.345
AO-7 01 Oct 04:50:19 04:58:36 68° 105° (ESE) 05:06:50 29.400- 29.500
KKS-1 01 Oct 04:56:57 05:01:10 42° 261° (W) 05:05:24 437.445
MOZHAYETS 4 01 Oct 04:57:48 05:01:44 28° 264° (W) 05:05:42
AO-85 01 Oct 05:10:36 05:14:23 33° 52° (NE) 05:17:58 145.980
STARS 01 Oct 05:20:43 05:24:57 48° 260° (W) 05:29:12 437.465
Cosmos 2504 01 Oct 05:23:32 05:30:15 38° 285° (WNW) 05:36:51 435.465 / 435.565
RS-15 01 Oct 05:36:38 05:49:01 78° 244° (WSW) 06:01:01 29.354- 29.394
CUSAT 1 01 Oct 05:56:09 06:03:31 57° 76° (ENE) 06:09:27 437.405
PCSat 01 Oct 05:57:51 06:01:16 17° 315° (NW) 06:04:43 145.827
AIST 1 01 Oct 05:59:43 06:03:48 38° 282° (WNW) 06:07:54
ITAMSAT 1 01 Oct 05:59:57 06:01:59 12° 300° (WNW) 06:04:02 435.822/435.867
BRITE-PL 01 Oct 06:04:15 06:08:10 27° 94° (E) 06:11:51 437.365/2234.400
HORYU 2 01 Oct 06:08:51 06:13:15 53° 101° (E) 06:17:37 437.375
NOAA 15 01 Oct 06:16:27 06:19:54 17° 92° (E) 06:23:19 137.62
DANDE 01 Oct 06:17:59 06:25:49 42° 72° (ENE) 06:32:53 436.750
NOAA 18 01 Oct 06:18:07 06:19:11 11° 90° (E) 06:20:17 137.9125
CUBESAT XI-V 01 Oct 06:27:19 06:31:13 26° 265° (W) 06:35:08 437.345
LilacSat-2 01 Oct 06:42:00 06:45:02 22° 95° (E) 06:48:04 437.200
O/OREOS (USA 219) 01 Oct 06:42:18 06:46:38 45° 106° (ESE) 06:51:01 437.305
CUTE-I 01 Oct 06:43:46 06:48:15 27° 96° (E) 06:52:43 437.470
AO-7 01 Oct 06:44:06 06:50:42 28° 303° (WNW) 06:57:19 29.400- 29.500
Cubesat XI-IV 01 Oct 06:44:47 06:49:17 27° 96° (E) 06:53:46 437.490
AO-85 01 Oct 06:51:40 06:54:30 19° 250° (WSW) 06:57:15 145.980
GOMX 1 01 Oct 07:12:40 07:16:57 61° 100° (E) 07:21:03 467.674
DOVE 4 01 Oct 07:16:01 07:19:27 25° 95° (E) 07:22:53 437.250
GONETS M04 01 Oct 07:17:59 07:23:25 18° 78° (ENE) 07:28:53
STRAND 1 01 Oct 07:18:44 07:23:40 52° 72° (ENE) 07:28:37 437.568
CUSAT 1 01 Oct 07:39:15 07:44:44 24° 278° (W) 07:49:28 437.405
BRITE-PL 01 Oct 07:42:45 07:46:34 26° 292° (WNW) 07:50:11 437.365/2234.400
HORYU 2 01 Oct 07:46:57 07:49:20 14° 296° (WNW) 07:51:42 437.375
HO-68 01 Oct 07:49:46 07:54:35 19° 92° (E) 07:59:22 435.675
RS-15 01 Oct 07:52:22 07:59:20 18° 264° (W) 08:06:15 29.354- 29.394
NOAA 15 01 Oct 07:54:49 07:59:59 54° 288° (WNW) 08:05:06 137.62
NOAA 18 01 Oct 07:55:00 08:00:29 87° 285° (WNW) 08:05:59 137.9125
DANDE 01 Oct 08:00:51 08:08:34 43° 271° (W) 08:15:28 436.750
CINEMA 3 01 Oct 08:01:21 08:04:31 20° 95° (E) 08:07:44 145.822/145.860
LilacSat-2 01 Oct 08:16:09 08:19:14 23° 290° (WNW) 08:22:19 437.200
Cosmos 2499 01 Oct 08:22:51 08:29:19 39° 88° (E) 08:35:44 435.465 / 435.565
O/OREOS (USA 219) 01 Oct 08:23:10 08:26:17 18° 303° (WNW) 08:29:26 437.305
CUTE-I 01 Oct 08:23:27 08:28:19 37° 291° (WNW) 08:33:11 437.470
Cubesat XI-IV 01 Oct 08:24:30 08:29:22 36° 291° (WNW) 08:34:14 437.490
BEESAT 3 01 Oct 08:38:30 08:41:38 22° 49° (NE) 08:44:46 437.485
CUBEBUG 2 01 Oct 08:44:18 08:47:07 17° 93° (E) 08:49:58 437.445
SEEDS 01 Oct 08:45:18 08:49:07 31° 96° (E) 08:52:55 437.485
CUTE 1.7 + AOD 2 01 Oct 08:50:30 08:54:43 53° 100° (E) 08:58:55 437.475
CANX-2 01 Oct 08:52:29 08:56:47 67° 102° (ESE) 09:01:02 2200.000
GOMX 1 01 Oct 08:53:19 08:54:27 11° 298° (WNW) 08:55:34 467.674
DOVE 4 01 Oct 08:53:47 08:57:05 23° 291° (WNW) 09:00:22 437.250
UWE-3 01 Oct 08:54:56 08:57:18 14° 92° (E) 08:59:42 435.000/436.395/437.385
AAUSAT CUBESAT 2 01 Oct 08:57:25 09:00:43 22° 94° (E) 09:04:01 437.432
STRAND 1 01 Oct 08:59:51 09:03:07 17° 268° (W) 09:06:25 437.568
Oscar 11 01 Oct 09:07:48 09:09:02 11° 90° (E) 09:10:15 145.826/435.025
GONETS M04 01 Oct 09:10:10 09:19:01 85° 277° (W) 09:27:57
ZACube-1 01 Oct 09:15:38 09:18:14 15° 93° (E) 09:20:50 437.345
PRISM 01 Oct 09:23:42 09:27:52 81° 257° (WSW) 09:32:04 437.425
UNISAT 6 01 Oct 09:25:18 09:27:00 12° 64° (ENE) 09:28:41 437.425
HO-68 01 Oct 09:35:46 09:42:54 74° 288° (WNW) 09:50:01 435.675
CINEMA 3 01 Oct 09:37:59 09:41:40 30° 289° (WNW) 09:45:27 145.822/145.860
NOAA 18 01 Oct 09:38:26 09:40:19 12° 302° (WNW) 09:42:11 137.9125
BEESAT 2 01 Oct 09:41:19 09:45:13 47° 55° (NE) 09:49:05 435.950
COMPASS 1 01 Oct 09:44:49 09:49:02 76° 285° (WNW) 09:53:14 437.405
PHONESAT 2.4 01 Oct 09:47:12 09:49:59 45° 158° (SSE) 09:52:49 2401.200-2431.200
DELFI C3 01 Oct 09:47:15 09:48:16 11° 91° (E) 09:49:17 145.870
ANTELSAT 01 Oct 09:58:20 10:01:56 28° 70° (ENE) 10:05:34 437.575/2403.000
FUNcube-1 01 Oct 10:06:09 10:10:26 52° 100° (E) 10:14:48 145.935
BEESAT 3 01 Oct 10:15:46 10:19:20 32° 246° (WSW) 10:22:52 437.485
Cosmos 2499 01 Oct 10:16:09 10:22:25 33° 287° (WNW) 10:28:42 435.465 / 435.565
TIGRISAT 01 Oct 10:17:18 10:21:19 42° 72° (ENE) 10:25:21 435.000
CUBEBUG 2 01 Oct 10:19:48 10:23:52 40° 287° (WNW) 10:28:02 437.445
SEEDS 01 Oct 10:21:26 10:24:36 21° 292° (WNW) 10:27:46 437.485
CUTE 1.7 + AOD 2 01 Oct 10:28:04 10:30:05 13° 295° (WNW) 10:32:05 437.475
UWE-3 01 Oct 10:29:46 10:33:57 48° 286° (WNW) 10:38:15 435.000/436.395/437.385
CANX-2 01 Oct 10:30:58 10:32:02 11° 297° (WNW) 10:33:06 2200.000
AAUSAT CUBESAT 2 01 Oct 10:32:36 10:36:10 27° 290° (WNW) 10:39:42 437.432
HUMSAT D 01 Oct 10:37:55 10:41:21 23° 95° (E) 10:44:48 437.325/437.525
Oscar 11 01 Oct 10:41:12 10:45:31 60° 285° (WNW) 10:49:48 145.826/435.025
QB50P2 01 Oct 10:46:53 10:48:54 13° 65° (ENE) 10:50:53 145.880/145.840
POLYITAN 1 01 Oct 10:49:05 10:51:04 13° 65° (ENE) 10:53:02 437.675
ZACube-1 01 Oct 10:50:31 10:54:41 45° 287° (WNW) 10:58:55 437.345
UNISAT 6 01 Oct 10:59:02 11:03:13 56° 259° (W) 11:07:25 437.425
AIST 2 01 Oct 10:59:45 11:02:04 14° 44° (NE) 11:04:22 435.215
GONETS M04 01 Oct 11:11:57 11:17:13 17° 298° (WNW) 11:22:30
DELFI C3 01 Oct 11:19:28 11:23:23 51° 286° (WNW) 11:27:15 145.870
DUCHIFAT 1 01 Oct 11:19:45 11:23:09 25° 69° (ENE) 11:26:33 145.980
BEESAT 2 01 Oct 11:20:34 11:22:37 14° 251° (WSW) 11:24:39 435.950
PHONESAT 2.4 01 Oct 11:23:08 11:26:03 64° 354° (N) 11:28:58 2401.200-2431.200
QB50P1 01 Oct 11:25:48 11:29:33 33° 71° (ENE) 11:33:20 145.935-145.965
HO-68 01 Oct 11:26:10 11:29:25 14° 307° (NW) 11:32:38 435.675
ANTELSAT 01 Oct 11:35:17 11:38:38 22° 265° (W) 11:41:59 437.575/2403.000
POPSAT HIP 1 01 Oct 11:39:25 11:43:26 47° 73° (ENE) 11:47:28 437.405
JAS-2 01 Oct 11:43:47 11:50:08 50° 68° (ENE) 11:57:14 435.910
FUNcube-1 01 Oct 11:43:58 11:46:14 14° 295° (WNW) 11:48:33 145.935
NANOSAT C BR1 01 Oct 11:52:49 11:56:58 66° 75° (ENE) 12:01:08 145.865
TIGRISAT 01 Oct 11:55:52 11:58:13 14° 268° (W) 12:00:34 435.000
CUBEBUG 1 01 Oct 11:57:34 12:00:15 16° 93° (E) 12:02:56 437.445
VELOX 1 01 Oct 12:03:51 12:06:12 14° 92° (E) 12:08:34 145.980
HUMSAT D 01 Oct 12:13:17 12:16:55 28° 290° (WNW) 12:20:34 437.325/437.525
ESTCUBE 1 01 Oct 12:19:39 12:24:03 47° 99° (E) 12:28:23 437.505/2401.250
QB50P2 01 Oct 12:20:09 12:24:14 50° 260° (W) 12:28:21 145.880/145.840
SPROUT 01 Oct 12:20:55 12:22:24 12° 91° (E) 12:23:54 437.525
POLYITAN 1 01 Oct 12:22:20 12:26:24 50° 260° (W) 12:30:30 437.675
AIST 2 01 Oct 12:36:47 12:40:58 66° 242° (WSW) 12:45:07 435.215
BUGSAT 1 01 Oct 12:40:35 12:44:40 87° 80° (E) 12:48:45 437.445
UKube-1 01 Oct 12:41:50 12:44:44 17° 94° (E) 12:47:36 .
Gurwin Techsat 1B 01 Oct 12:48:06 12:49:20 11° 59° (ENE) 12:50:34 435.225
Oscar 19 01 Oct 12:54:42 12:58:58 26° 67° (ENE) 13:03:15 437.125/150
DUCHIFAT 1 01 Oct 12:55:19 12:58:44 25° 264° (W) 13:02:11 145.980
AISAT 01 Oct 12:55:20 12:59:40 58° 101° (E) 13:03:58 437.250
M-CUBED/EXP-1 PRIME 01 Oct 12:56:32 12:58:56 19° 101° (E) 13:01:22 437.505
PHONESAT 2.4 01 Oct 12:59:19 13:02:15 78° 11° (N) 13:05:11 2401.200-2431.200
PCSat 01 Oct 13:01:02 13:06:18 48° 57° (ENE) 13:11:30 145.827
QB50P1 01 Oct 13:02:28 13:05:24 18° 266° (W) 13:08:21 145.935-145.965
YUBILEINY 01 Oct 13:03:38 13:10:33 25° 68° (ENE) 13:17:23 435.215
Cosmos 2491 01 Oct 13:06:16 13:07:46 11° 73° (ENE) 13:09:16 435.465 / 435.565
50 SAT 01 Oct 13:12:47 13:16:27 84° 285° (WNW) 13:20:05 437.505
DX 1 01 Oct 13:17:02 13:21:20 59° 101° (ESE) 13:25:35 434.975-435.025
POPSAT HIP 1 01 Oct 13:17:30 13:19:27 13° 268° (W) 13:21:25 437.405
Cosmos 2504 01 Oct 13:26:49 13:27:59 10° 61° (ENE) 13:29:10 435.465 / 435.565
TISAT 1 01 Oct 13:26:55 13:28:27 12° 92° (E) 13:30:00 437.305
JAS-2 01 Oct 13:29:49 13:35:25 29° 268° (W) 13:41:37 435.910
CUBEBUG 1 01 Oct 13:32:39 13:36:42 40° 288° (WNW) 13:40:43 437.445
VELOX 1 01 Oct 13:38:41 13:42:55 47° 287° (WNW) 13:47:07 145.980
SO-50 01 Oct 13:43:04 13:46:27 19° 110° (ESE) 13:49:49 436.795
AUBIESAT-1 01 Oct 13:49:16 13:52:34 86° 109° (ESE) 13:55:58 437.475
SPROUT 01 Oct 13:54:29 13:58:38 54° 286° (WNW) 14:02:47 437.525
ESTCUBE 1 01 Oct 13:57:40 14:00:26 16° 295° (WNW) 14:03:12 437.505/2401.250
ITAMSAT 1 01 Oct 13:58:32 14:01:05 14° 61° (ENE) 14:03:38 435.822/435.867
AO-7 01 Oct 13:59:19 14:04:22 18° 51° (NE) 14:09:25 29.400- 29.500
UKube-1 01 Oct 14:16:54 14:20:53 37° 289° (WNW) 14:24:50 .
Gurwin Techsat 1B 01 Oct 14:23:07 14:28:26 85° 75° (ENE) 14:33:46 435.225
BEESAT 01 Oct 14:28:03 14:29:38 11° 90° (E) 14:31:11 436.000
M-CUBED/EXP-1 PRIME 01 Oct 14:31:00 14:33:25 19° 295° (WNW) 14:35:51 437.505
Oscar 19 01 Oct 14:33:21 14:38:06 36° 262° (W) 14:42:53 437.125/150
AISAT 01 Oct 14:33:42 14:35:36 13° 297° (WNW) 14:37:31 437.250
PHONESAT 2.4 01 Oct 14:35:35 14:38:10 28° 206° (SSW) 14:40:46 2401.200-2431.200
PCSat 01 Oct 14:45:14 14:49:20 22° 254° (WSW) 14:53:25 145.827
Cosmos 2491 01 Oct 14:54:06 15:02:46 68° 93° (E) 15:11:31 435.465 / 435.565
DX 1 01 Oct 14:55:12 14:56:59 12° 297° (WNW) 14:58:47 434.975-435.025
YUBILEINY 01 Oct 14:59:25 15:08:00 67° 268° (W) 15:16:34 435.215
TISAT 1 01 Oct 15:00:19 15:04:22 51° 286° (WNW) 15:08:25 437.305
Cosmos 2504 01 Oct 15:15:12 15:22:44 67° 81° (E) 15:30:48 435.465 / 435.565
SO-50 01 Oct 15:21:53 15:26:35 49° 306° (NW) 15:31:14 436.795
ITAMSAT 1 01 Oct 15:34:44 15:39:53 73° 257° (WSW) 15:45:05 435.822/435.867
ITUPSAT 1 01 Oct 15:39:41 15:44:30 67° 102° (ESE) 15:49:16 437.325
AO-7 01 Oct 15:47:34 15:55:53 81° 71° (ENE) 16:04:13 29.400- 29.500
SWISSCUBE 01 Oct 15:50:31 15:55:20 83° 285° (WNW) 16:00:08 437.505
BEESAT 01 Oct 16:03:04 16:07:51 68° 285° (WNW) 16:12:35 436.000
AIST 1 01 Oct 16:07:46 16:11:50 42° 79° (E) 16:15:52
Gurwin Techsat 1B 01 Oct 16:08:10 16:09:00 10° 271° (W) 16:09:49 435.225
KKS-1 01 Oct 16:48:56 16:53:04 37° 99° (E) 16:57:10 437.445
MOZHAYETS 4 01 Oct 16:53:05 16:57:45 73° 102° (ESE) 17:02:23
O/OREOS (USA 219) 01 Oct 16:53:21 16:57:57 72° 68° (ENE) 17:02:29 437.305
Cosmos 2491 01 Oct 16:53:22 17:00:18 25° 292° (WNW) 17:07:20 435.465 / 435.565
HORYU 2 01 Oct 17:05:34 17:09:42 41° 72° (ENE) 17:13:52 437.375
Cosmos 2504 01 Oct 17:10:02 17:15:27 22° 277° (W) 17:21:06 435.465 / 435.565
STARS 01 Oct 17:11:21 17:15:14 31° 97° (E) 17:19:07 437.465
BRITE-PL 01 Oct 17:12:20 17:17:22 34° 70° (ENE) 17:22:17 437.365/2234.400
ITUPSAT 1 01 Oct 17:19:28 17:21:45 13° 298° (WNW) 17:24:00 437.325
NOAA 15 01 Oct 17:34:59 17:39:18 26° 66° (ENE) 17:43:37 137.62
NOAA 18 01 Oct 17:41:32 17:45:27 21° 63° (ENE) 17:49:23 137.9125
AO-7 01 Oct 17:43:46 17:49:25 20° 267° (W) 17:55:06 29.400- 29.500
AIST 1 01 Oct 17:46:50 17:49:00 14° 274° (W) 17:51:09
RS-15 01 Oct 17:51:04 17:57:54 18° 97° (E) 18:04:54 29.354- 29.394
CUTE-I 01 Oct 18:04:15 18:09:08 39° 69° (ENE) 18:14:02 437.470
Cubesat XI-IV 01 Oct 18:05:27 18:10:21 39° 69° (ENE) 18:15:16 437.490
ISS 01 Oct 18:06:53 18:08:34 13° 129° (SE) 18:10:15 145.825
Cosmos 2499 01 Oct 18:16:11 18:19:14 12° 63° (ENE) 18:22:21 435.465 / 435.565
GOMX 1 01 Oct 18:18:17 18:23:32 61° 75° (ENE) 18:28:32 467.674
HO-68 01 Oct 18:19:40 18:22:55 14° 53° (NE) 18:26:11 435.675
DOVE 4 01 Oct 18:19:52 18:23:55 26° 70° (ENE) 18:27:47 437.250
CUBESAT XI-V 01 Oct 18:24:04 18:28:47 87° 99° (E) 18:33:26 437.345
KKS-1 01 Oct 18:26:14 18:29:20 19° 294° (WNW) 18:32:26 437.445
MOZHAYETS 4 01 Oct 18:32:46 18:34:16 11° 298° (WNW) 18:35:47
HORYU 2 01 Oct 18:43:40 18:46:25 16° 267° (W) 18:49:12 437.375
STARS 01 Oct 18:48:02 18:51:24 22° 293° (WNW) 18:54:46 437.465
BRITE-PL 01 Oct 18:50:42 18:55:44 32° 264° (W) 19:00:41 437.365/2234.400
CUSAT 1 01 Oct 18:53:46 19:00:09 61° 93° (E) 19:07:47 437.405
LilacSat-2 01 Oct 18:55:59 18:59:40 56° 259° (W) 19:03:24 437.200
CINEMA 3 01 Oct 19:02:29 19:05:19 17° 67° (ENE) 19:08:05 145.822/145.860
NOAA 15 01 Oct 19:13:55 19:18:50 38° 262° (W) 19:23:48 137.62
NOAA 18 01 Oct 19:20:23 19:25:42 52° 259° (W) 19:31:01 137.9125
GONETS M04 01 Oct 19:22:23 19:30:46 46° 75° (ENE) 19:39:02
AO-85 01 Oct 19:23:53 19:27:29 19° 110° (ESE) 19:30:59 145.980
DANDE 01 Oct 19:23:55 19:28:58 39° 87° (E) 19:35:24 436.750
STRAND 1 01 Oct 19:31:19 19:35:01 20° 93° (E) 19:38:42 437.568
SEEDS 01 Oct 19:36:21 19:39:20 19° 68° (ENE) 19:42:22 437.485
ISS 01 Oct 19:41:30 19:44:42 56° 324° (NW) 19:47:55 145.825
CUTE 1.7 + AOD 2 01 Oct 19:41:56 19:45:42 32° 71° (ENE) 19:49:30 437.475
CUBEBUG 2 01 Oct 19:43:00 19:44:25 12° 64° (ENE) 19:45:50 437.445
CANX-2 01 Oct 19:43:52 19:47:48 39° 72° (ENE) 19:51:47 2200.000
CUTE-I 01 Oct 19:44:58 19:49:16 25° 265° (W) 19:53:34 437.470
Cubesat XI-IV 01 Oct 19:46:14 19:50:30 24° 265° (W) 19:54:48 437.490
AAUSAT CUBESAT 2 01 Oct 19:47:35 19:49:40 14° 65° (ENE) 19:51:44 437.432
RS-15 01 Oct 19:56:42 20:08:14 81° 117° (ESE) 20:20:26 29.354- 29.394
DOVE 4 01 Oct 19:57:07 20:01:29 31° 263° (W) 20:05:39 437.250
GOMX 1 01 Oct 19:58:49 20:01:52 15° 268° (W) 20:04:52 467.674
HO-68 01 Oct 20:02:18 20:09:26 74° 71° (ENE) 20:16:35 435.675
Cosmos 2499 01 Oct 20:05:50 20:13:34 74° 82° (E) 20:21:54 435.465 / 435.565
COMPASS 1 01 Oct 20:33:50 20:37:56 59° 75° (ENE) 20:42:05 437.405
CUSAT 1 01 Oct 20:37:11 20:42:46 26° 294° (WNW) 20:49:05 437.405
CINEMA 3 01 Oct 20:38:02 20:42:11 39° 262° (W) 20:46:12 145.822/145.860
JUGNU 01 Oct 20:43:07 20:45:00 11° 180° (S) 20:46:53 437.505
FUNcube-1 01 Oct 21:00:43 21:04:24 32° 71° (ENE) 21:08:07 145.935
AO-85 01 Oct 21:02:31 21:07:37 54° 304° (NW) 21:12:26 145.980
DANDE 01 Oct 21:06:48 21:11:51 31° 293° (WNW) 21:18:08 436.750
PRISM 01 Oct 21:07:52 21:10:12 15° 93° (E) 21:12:30 437.425
STRAND 1 01 Oct 21:09:28 21:14:24 46° 289° (WNW) 21:19:18 437.568
SEEDS 01 Oct 21:10:59 21:14:47 33° 263° (W) 21:18:39 437.485
CUBEBUG 2 01 Oct 21:16:27 21:20:33 56° 260° (W) 21:24:39 437.445
CUTE 1.7 + AOD 2 01 Oct 21:18:28 21:21:34 20° 266° (W) 21:24:42 437.475
GONETS M04 01 Oct 21:19:33 21:27:20 37° 274° (W) 21:35:04
ISS 01 Oct 21:20:04 21:21:45 13° 343° (NNW) 21:23:26 145.825
AAUSAT CUBESAT 2 01 Oct 21:20:40 21:24:41 48° 261° (W) 21:28:46 437.432
CANX-2 01 Oct 21:21:08 21:23:48 16° 268° (W) 21:26:29 2200.000
UWE-3 01 Oct 21:25:18 21:29:26 70° 258° (WSW) 21:33:34 435.000/436.395/437.385
HUMSAT D 01 Oct 21:29:13 21:31:20 14° 65° (ENE) 21:33:28 437.325/437.525
Oscar 11 01 Oct 21:34:12 21:38:31 87° 73° (ENE) 21:42:52 145.826/435.025
ZACube-1 01 Oct 21:44:48 21:48:54 67° 260° (W) 21:53:03 437.345
HO-68 01 Oct 21:52:57 21:57:44 19° 268° (W) 22:02:34 435.675
Cosmos 2499 01 Oct 22:00:40 22:05:55 20° 278° (W) 22:11:25 435.465 / 435.565
DELFI C3 01 Oct 22:03:23 22:07:21 73° 77° (ENE) 22:11:23 145.870
RS-15 01 Oct 22:11:40 22:22:08 35° 323° (NW) 22:33:05 29.354- 29.394
COMPASS 1 01 Oct 22:13:12 22:13:51 10° 270° (W) 22:14:30 437.405
SO-50 01 Oct 22:15:28 22:18:00 14° 41° (NE) 22:20:30 436.795
FUNcube-1 01 Oct 22:37:53 22:40:43 18° 266° (W) 22:43:34 145.935
PRISM 01 Oct 22:41:48 22:45:40 40° 288° (WNW) 22:49:30 437.425
UNISAT 6 01 Oct 22:51:42 22:55:41 31° 97° (E) 22:59:44 437.425
CUBEBUG 1 01 Oct 22:53:19 22:55:16 13° 64° (ENE) 22:57:13 437.445
VELOX 1 01 Oct 23:00:58 23:02:40 12° 63° (ENE) 23:04:24 145.980
HUMSAT D 01 Oct 23:02:37 23:06:32 45° 261° (W) 23:10:31 437.325/437.525
ESTCUBE 1 01 Oct 23:17:49 23:21:59 37° 71° (ENE) 23:26:11 437.505/2401.250
ANTELSAT 01 Oct 23:26:33 23:31:01 77° 102° (ESE) 23:35:36 437.575/2403.000
BEESAT 2 01 Oct 23:34:53 23:35:46 11° 108° (ESE) 23:36:37 435.950
UKube-1 01 Oct 23:36:03 23:38:14 14° 64° (ENE) 23:40:25 .
SRMSAT 01 Oct 23:36:22 23:38:01 11° 183° (S) 23:39:40 437.500
NANOSAT C BR1 01 Oct 23:40:40 23:42:00 11° 91° (E) 23:43:20 145.865
M-CUBED/EXP-1 PRIME 01 Oct 23:41:23 23:44:40 25° 66° (ENE) 23:47:45 437.505
TIGRISAT 01 Oct 23:45:51 23:50:17 69° 285° (WNW) 23:54:48 435.000
50 SAT 01 Oct 23:48:06 23:51:21 31° 72° (ENE) 23:54:37 437.505
AISAT 01 Oct 23:51:11 23:55:25 44° 72° (ENE) 23:59:38 437.250
SO-50 01 Oct 23:54:29 23:59:02 77° 241° (WSW) 00:03:29 436.795
BEESAT 3 02 Oct 00:04:20 00:08:07 52° 117° (ESE) 00:11:57 437.485
QB50P2 02 Oct 00:06:28 00:10:04 27° 96° (E) 00:13:39 145.880/145.840
POLYITAN 1 02 Oct 00:08:37 00:12:13 27° 96° (E) 00:15:49 437.675
DX 1 02 Oct 00:11:07 00:15:14 43° 72° (ENE) 00:19:23 434.975-435.025
BUGSAT 1 02 Oct 00:25:12 00:27:06 13° 93° (E) 00:28:59 437.445
CUBEBUG 1 02 Oct 00:26:40 00:31:01 59° 259° (WSW) 00:35:23 437.445
UNISAT 6 02 Oct 00:28:43 00:32:14 23° 292° (WNW) 00:35:48 437.425
RS-15 02 Oct 00:31:59 00:40:03 19° 357° (N) 00:48:12 29.354- 29.394
AUBIESAT-1 02 Oct 00:33:38 00:37:36 88° 72° (ENE) 00:41:18 437.475
VELOX 1 02 Oct 00:34:10 00:38:35 64° 259° (W) 00:43:00 145.980
ISS 02 Oct 00:34:36 00:36:59 18° 23° (NNE) 00:39:22 145.825
JAS-2 02 Oct 00:39:22 00:46:59 53° 98° (E) 00:54:02 435.910
DUCHIFAT 1 02 Oct 00:39:36 00:43:43 53° 100° (E) 00:47:50 145.980
SPROUT 02 Oct 00:46:12 00:50:28 87° 255° (WSW) 00:54:45 437.525
QB50P1 02 Oct 00:46:43 00:50:57 76° 103° (ESE) 00:55:10 145.935-145.965
ESTCUBE 1 02 Oct 00:55:39 00:58:53 19° 266° (W) 01:02:09 437.505/2401.250
POPSAT HIP 1 02 Oct 01:00:43 01:04:56 75° 284° (WNW) 01:09:09 437.405
ANTELSAT 02 Oct 01:06:30 01:07:07 10° 297° (WNW) 01:07:44 437.575/2403.000
Cosmos 2491 02 Oct 01:06:36 01:14:14 31° 71° (ENE) 01:21:47 435.465 / 435.565
BEESAT 2 02 Oct 01:09:08 01:13:01 58° 303° (WNW) 01:16:57 435.950
UKube-1 02 Oct 01:09:35 01:13:49 52° 260° (W) 01:18:03 .
NANOSAT C BR1 02 Oct 01:13:55 01:18:01 54° 286° (WNW) 01:22:08 145.865
M-CUBED/EXP-1 PRIME 02 Oct 01:15:53 01:19:06 22° 258° (WSW) 01:22:08 437.505
SWISSCUBE 02 Oct 01:22:09 01:23:10 11° 60° (ENE) 01:24:11 437.505
50 SAT 02 Oct 01:22:53 01:24:55 14° 267° (W) 01:26:57 437.505
AISAT 02 Oct 01:29:22 01:32:05 16° 267° (W) 01:34:46 437.250
BEESAT 02 Oct 01:33:27 01:35:31 13° 62° (ENE) 01:37:36 436.000
QB50P2 02 Oct 01:42:22 01:45:44 24° 291° (WNW) 01:49:07 145.880/145.840
BEESAT 3 02 Oct 01:43:48 01:46:04 15° 315° (NW) 01:48:22 437.485
POLYITAN 1 02 Oct 01:44:31 01:47:54 24° 291° (WNW) 01:51:17 437.675
DX 1 02 Oct 01:48:58 01:51:36 16° 267° (W) 01:54:15 434.975-435.025
TISAT 1 02 Oct 01:50:09 01:54:21 85° 259° (W) 01:58:32 437.305
BUGSAT 1 02 Oct 01:58:50 02:02:41 43° 287° (WNW) 02:06:31 437.445
YUBILEINY 02 Oct 02:03:25 02:10:40 30° 84° (E) 02:17:54 435.215
ISS 02 Oct 02:10:30 02:13:46 70° 221° (SW) 02:17:02 145.825
DUCHIFAT 1 02 Oct 02:17:05 02:18:57 13° 295° (WNW) 02:20:47 145.980
JAS-2 02 Oct 02:24:51 02:31:34 33° 297° (WNW) 02:37:56 435.910
AIST 2 02 Oct 02:33:09 02:36:49 33° 114° (ESE) 02:40:33 435.215
Gurwin Techsat 1B 02 Oct 02:40:51 02:45:46 37° 98° (E) 02:50:39 435.225
ITUPSAT 1 02 Oct 02:44:59 02:49:42 67° 74° (ENE) 02:54:28 437.325
Oscar 19 02 Oct 02:45:36 02:50:46 88° 108° (ESE) 02:55:54 437.125/150
RS-15 02 Oct 02:47:53 02:58:25 31° 33° (NNE) 03:08:49 29.354- 29.394
SWISSCUBE 02 Oct 02:55:28 03:00:14 83° 258° (WSW) 03:05:02 437.505
Cosmos 2491 02 Oct 03:02:54 03:11:26 55° 270° (W) 03:19:54 435.465 / 435.565
BEESAT 02 Oct 03:07:58 03:12:42 69° 258° (WSW) 03:17:27 436.000
PCSat 02 Oct 03:41:10 03:46:26 57° 113° (ESE) 03:51:45 145.827
KKS-1 02 Oct 03:45:48 03:49:41 30° 69° (ENE) 03:53:34 437.445
ITAMSAT 1 02 Oct 03:48:54 03:53:53 43° 99° (E) 03:58:51 435.822/435.867
AO-7 02 Oct 03:51:24 03:58:17 28° 96° (E) 04:05:07 29.400- 29.500
Cosmos 2504 02 Oct 03:52:31 03:59:40 57° 92° (E) 04:06:38 435.465 / 435.565
MOZHAYETS 4 02 Oct 03:53:27 03:57:56 58° 74° (ENE) 04:02:28
AO-85 02 Oct 03:57:46 03:58:49 11° 39° (NE) 03:59:51 145.980
